,,,PA_Meas_PMT16A,,PR_Meas_QMR101_102,,RH_Meas_QMH101,,SR_Meas_QMS101,,TA_Meas_QMH101,,GenWind,,GenWind,
date,time,status,PA,status,PR,status,RH,status,SR,status,TA,status,DirAvg,status,SpdAvg,
2012-05-16, 00:00:04,VALID,1008.53,VALID,0,VALID,104,VALID,0,VALID,23.5363,VALID,228,VALID,0.25,
2012-05-16, 00:01:04,VALID,1008.52,VALID,0,VALID,104,VALID,0,VALID,23.5363,VALID,228,VALID,0.0253906,
2012-05-16, 00:02:04,VALID,1008.49,VALID,0,VALID,104,VALID,0.112112,VALID,23.5363,VALID,228,VALID,0,
2012-05-16, 00:03:04,VALID,1008.49,VALID,0,VALID,104,VALID,0.112112,VALID,23.5363,VALID,228,VALID,0,
2012-05-16, 00:04:04,VALID,1008.49,VALID,0,VALID,104,VALID,0.112112,VALID,23.5363,VALID,228,VALID,0,
2012-05-16, 00:05:04,VALID,1008.48,VALID,0,VALID,104,VALID,0.112112,VALID,23.5151,VALID,228,VALID,0,
2012-05-16, 00:06:04,VALID,1008.51,VALID,0,VALID,104,VALID,0.112112,VALID,23.5363,VALID,228,VALID,0,
2012-05-16, 00:07:04,VALID,1008.51,VALID,0,VALID,104,VALID,0,VALID,23.5363,VALID,228,VALID,0,
2012-05-16, 00:08:04,VALID,1008.5,VALID,0,VALID,104,VALID,0.112112,VALID,23.5363,VALID,228,VALID,0,
2012-05-16, 00:09:04,VALID,1008.5,VALID,0,VALID,104,VALID,0.112112,VALID,23.5363,VALID,228,VALID,0,
2012-05-16, 00:10:04,VALID,1008.5,VALID,0,VALID,104,VALID,0.112112,VALID,23.5558,VALID,228,VALID,0,
2012-05-16, 00:11:04,VALID,1008.45,VALID,0,VALID,104,VALID,0.112112,VALID,23.5363,VALID,228,VALID,0,
2012-05-16, 00:12:04,VALID,1008.47,VALID,0,VALID,104,VALID,0.112112,VALID,23.5363,VALID,228,VALID,0,
2012-05-16, 00:13:04,VALID,1008.45,VALID,0,VALID,104,VALID,0.112112,VALID,23.5169,VALID,228,VALID,0,
2012-05-16, 00:14:04,VALID,1008.47,VALID,0,VALID,104,VALID,0,VALID,23.4779,VALID,228,VALID,0,
2012-05-16, 00:15:04,VALID,1008.48,VALID,0,VALID,104,VALID,0.112112,VALID,23.4779,VALID,228,VALID,0,
2012-05-16, 00:16:04,VALID,1008.49,VALID,0,VALID,104,VALID,0,VALID,23.4584,VALID,228,VALID,0,
2012-05-16, 00:17:04,VALID,1008.5,VALID,0,VALID,104,VALID,0.112112,VALID,23.4389,VALID,228,VALID,0,
2012-05-16, 00:18:04,VALID,1008.53,VALID,0,VALID,104,VALID,0.112112,VALID,23.4389,VALID,228,VALID,0,
2012-05-16, 00:19:04,VALID,1008.52,VALID,0,VALID,104,VALID,0.112112,VALID,23.4389,VALID,228,VALID,0,
2012-05-16, 00:20:04,VALID,1008.54,VALID,0,VALID,104,VALID,0.112112,VALID,23.4,VALID,228,VALID,0,
2012-05-16, 00:21:04,VALID,1008.54,VALID,0,VALID,104,VALID,0,VALID,23.4,VALID,228,VALID,0,
2012-05-16, 00:22:04,VALID,1008.52,VALID,0,VALID,104,VALID,0.112112,VALID,23.3805,VALID,228,VALID,0,
2012-05-16, 00:23:04,VALID,1008.52,VALID,0,VALID,104,VALID,0.112112,VALID,23.3805,VALID,228,VALID,0,
2012-05-16, 00:24:04,VALID,1008.52,VALID,0,VALID,104,VALID,0.112112,VALID,23.3805,VALID,228,VALID,0,
2012-05-16, 00:25:04,VALID,1008.49,VALID,0,VALID,104,VALID,0.112112,VALID,23.361,VALID,228,VALID,0.173047,
2012-05-16, 00:26:04,VALID,1008.5,VALID,0,VALID,104,VALID,0.112112,VALID,23.361,VALID,228,VALID,0.146094,
2012-05-16, 00:27:04,VALID,1008.48,VALID,0,VALID,104,VALID,0.112112,VALID,23.361,VALID,228,VALID,0,
2012-05-16, 00:28:04,VALID,1008.47,VALID,0,VALID,104,VALID,0.112112,VALID,23.3805,VALID,228,VALID,0,
2012-05-16, 00:29:04,VALID,1008.44,VALID,0,VALID,104,VALID,0.112112,VALID,23.4017,VALID,228,VALID,0,
2012-05-16, 00:30:04,VALID,1008.46,VALID,0,VALID,104,VALID,0.112112,VALID,23.3805,VALID,228,VALID,0.0195313,
2012-05-16, 00:31:04,VALID,1008.42,VALID,0,VALID,104,VALID,0,VALID,23.361,VALID,228,VALID,0.0484375,
2012-05-16, 00:32:04,VALID,1008.44,VALID,0,VALID,104,VALID,0.112112,VALID,23.361,VALID,228,VALID,0,
2012-05-16, 00:33:04,VALID,1008.44,VALID,0,VALID,104,VALID,0,VALID,23.3415,VALID,228,VALID,0,
2012-05-16, 00:34:04,VALID,1008.4,VALID,0,VALID,104,VALID,0.112112,VALID,23.361,VALID,228,VALID,0,
2012-05-16, 00:35:04,VALID,1008.39,VALID,0,VALID,104,VALID,0.112112,VALID,23.361,VALID,228,VALID,0,
2012-05-16, 00:36:04,VALID,1008.38,VALID,0,VALID,104,VALID,0.112112,VALID,23.3805,VALID,228,VALID,0,
2012-05-16, 00:37:04,VALID,1008.35,VALID,0,VALID,104,VALID,0,VALID,23.3805,VALID,228,VALID,0,
2012-05-16, 00:38:04,VALID,1008.33,VALID,0,VALID,104,VALID,0,VALID,23.4212,VALID,228,VALID,0,
2012-05-16, 00:39:04,VALID,1008.32,VALID,0,VALID,104,VALID,0,VALID,23.4212,VALID,228,VALID,0,
2012-05-16, 00:40:04,VALID,1008.33,VALID,0,VALID,104,VALID,0.112112,VALID,23.4,VALID,228,VALID,0,
2012-05-16, 00:41:04,VALID,1008.29,VALID,0,VALID,104,VALID,0.112112,VALID,23.4,VALID,228,VALID,0,
2012-05-16, 00:42:04,VALID,1008.29,VALID,0,VALID,104,VALID,0.112112,VALID,23.3805,VALID,228,VALID,0,
2012-05-16, 00:43:04,VALID,1008.3,VALID,0,VALID,104,VALID,0.112112,VALID,23.4212,VALID,228,VALID,0,
2012-05-16, 00:44:04,VALID,1008.35,VALID,0,VALID,104,VALID,0,VALID,23.4,VALID,228,VALID,0,
2012-05-16, 00:45:04,VALID,1008.39,VALID,0,VALID,104,VALID,0,VALID,23.4,VALID,228,VALID,0,
2012-05-16, 00:46:04,VALID,1008.38,VALID,0,VALID,104,VALID,0,VALID,23.4017,VALID,228,VALID,0,
2012-05-16, 00:47:04,VALID,1008.38,VALID,0,VALID,104,VALID,0,VALID,23.4212,VALID,228,VALID,0,
2012-05-16, 00:48:04,VALID,1008.4,VALID,0,VALID,104,VALID,0.112112,VALID,23.4,VALID,228,VALID,0,
2012-05-16, 00:49:04,VALID,1008.39,VALID,0,VALID,104,VALID,0,VALID,23.4,VALID,228,VALID,0,
2012-05-16, 00:50:04,VALID,1008.38,VALID,0,VALID,104,VALID,0.112112,VALID,23.4,VALID,228,VALID,0,
2012-05-16, 00:51:04,VALID,1008.38,VALID,0,VALID,104,VALID,0,VALID,23.4212,VALID,228,VALID,0,
2012-05-16, 00:52:04,VALID,1008.36,VALID,0,VALID,104,VALID,0,VALID,23.4017,VALID,228,VALID,0,
2012-05-16, 00:53:04,VALID,1008.3,VALID,0,VALID,104,VALID,0.112112,VALID,23.3805,VALID,228,VALID,0,
2012-05-16, 00:54:04,VALID,1008.28,VALID,0,VALID,104,VALID,0,VALID,23.3805,VALID,228,VALID,0,
2012-05-16, 00:55:04,VALID,1008.26,VALID,0,VALID,104,VALID,0.112112,VALID,23.4017,VALID,228,VALID,0.207813,
2012-05-16, 00:56:04,VALID,1008.29,VALID,0,VALID,104,VALID,0,VALID,23.3805,VALID,228,VALID,0.141406,
2012-05-16, 00:57:04,VALID,1008.32,VALID,0,VALID,104,VALID,0,VALID,23.3805,VALID,228,VALID,0,
2012-05-16, 00:58:04,VALID,1008.31,VALID,0,VALID,104,VALID,0,VALID,23.3805,VALID,228,VALID,0,
2012-05-16, 00:59:04,VALID,1008.32,VALID,0,VALID,104,VALID,0.112112,VALID,23.361,VALID,228,VALID,0,
2012-05-16, 01:00:04,VALID,1008.31,VALID,0,VALID,104,VALID,0.112112,VALID,23.361,VALID,228,VALID,0,
2012-05-16, 01:01:04,VALID,1008.31,VALID,0,VALID,104,VALID,0,VALID,23.3628,VALID,228,VALID,0,
2012-05-16, 01:02:04,VALID,1008.28,VALID,0,VALID,104,VALID,0,VALID,23.3433,VALID,228,VALID,0,
2012-05-16, 01:03:04,VALID,1008.26,VALID,0,VALID,104,VALID,0,VALID,23.3026,VALID,228,VALID,0,
2012-05-16, 01:04:04,VALID,1008.3,VALID,0,VALID,104,VALID,0,VALID,23.3026,VALID,228,VALID,0,
2012-05-16, 01:05:04,VALID,1008.27,VALID,0,VALID,104,VALID,0,VALID,23.322,VALID,228,VALID,0,
2012-05-16, 01:06:04,VALID,1008.26,VALID,0,VALID,104,VALID,0.112112,VALID,23.322,VALID,228,VALID,0,
2012-05-16, 01:07:04,VALID,1008.25,VALID,0,VALID,104,VALID,0.112112,VALID,23.322,VALID,228,VALID,0,
2012-05-16, 01:08:04,VALID,1008.23,VALID,0,VALID,104,VALID,0.112112,VALID,23.322,VALID,228,VALID,0,
2012-05-16, 01:09:04,VALID,1008.23,VALID,0,VALID,104,VALID,0,VALID,23.322,VALID,228,VALID,0,
2012-05-16, 01:10:04,VALID,1008.24,VALID,0,VALID,104,VALID,0,VALID,23.3026,VALID,228,VALID,0,
2012-05-16, 01:11:04,VALID,1008.21,VALID,0,VALID,104,VALID,0,VALID,23.3433,VALID,228,VALID,0,
2012-05-16, 01:12:04,VALID,1008.2,VALID,0,VALID,104,VALID,0,VALID,23.3238,VALID,228,VALID,0,
2012-05-16, 01:13:04,VALID,1008.22,VALID,0,VALID,104,VALID,0.112112,VALID,23.2831,VALID,228,VALID,0,
2012-05-16, 01:14:04,VALID,1008.18,VALID,0,VALID,104,VALID,0,VALID,23.2831,VALID,228,VALID,0,
2012-05-16, 01:15:04,VALID,1008.21,VALID,0,VALID,104,VALID,0.112112,VALID,23.2636,VALID,228,VALID,0,
2012-05-16, 01:16:04,VALID,1008.21,VALID,0,VALID,104,VALID,0.112112,VALID,23.2441,VALID,228,VALID,0,
2012-05-16, 01:17:04,VALID,1008.19,VALID,0,VALID,104,VALID,0.112112,VALID,23.2654,VALID,228,VALID,0,
2012-05-16, 01:18:04,VALID,1008.14,VALID,0,VALID,104,VALID,0.112112,VALID,23.2636,VALID,228,VALID,0,
2012-05-16, 01:19:04,VALID,1008.1,VALID,0,VALID,104,VALID,0.112112,VALID,23.2848,VALID,228,VALID,0,
2012-05-16, 01:20:04,VALID,1008.08,VALID,0,VALID,104,VALID,0,VALID,23.2636,VALID,228,VALID,0,
2012-05-16, 01:21:04,VALID,1008.06,VALID,0,VALID,104,VALID,0,VALID,23.2636,VALID,228,VALID,0,
2012-05-16, 01:22:04,VALID,1008.07,VALID,0,VALID,104,VALID,0,VALID,23.2848,VALID,228,VALID,0,
2012-05-16, 01:23:04,VALID,1008.04,VALID,0,VALID,104,VALID,0,VALID,23.2848,VALID,228,VALID,0,
2012-05-16, 01:24:04,VALID,1008.05,VALID,0,VALID,104,VALID,0,VALID,23.3026,VALID,228,VALID,0,
2012-05-16, 01:25:04,VALID,1008.05,VALID,0,VALID,104,VALID,0,VALID,23.3238,VALID,228,VALID,0.215234,
2012-05-16, 01:26:04,VALID,1008.03,VALID,0,VALID,104,VALID,0,VALID,23.3238,VALID,228,VALID,0.24375,
2012-05-16, 01:27:04,VALID,1008.03,VALID,0,VALID,104,VALID,0,VALID,23.3628,VALID,228,VALID,0.19375,
2012-05-16, 01:28:04,VALID,1008.03,VALID,0,VALID,104,VALID,0,VALID,23.3628,VALID,228,VALID,0.171875,
2012-05-16, 01:29:04,VALID,1008.02,VALID,0,VALID,104,VALID,0,VALID,23.3628,VALID,228,VALID,0,
2012-05-16, 01:30:04,VALID,1007.99,VALID,0,VALID,104,VALID,0,VALID,23.3238,VALID,228,VALID,0,
2012-05-16, 01:31:04,VALID,1007.99,VALID,0,VALID,104,VALID,0,VALID,23.3043,VALID,228,VALID,0,
2012-05-16, 01:32:04,VALID,1008,VALID,0,VALID,104,VALID,0,VALID,23.2636,VALID,228,VALID,0,
2012-05-16, 01:33:04,VALID,1008.01,VALID,0,VALID,104,VALID,0,VALID,23.2848,VALID,228,VALID,0,
2012-05-16, 01:34:04,VALID,1008,VALID,0,VALID,104,VALID,0,VALID,23.2654,VALID,228,VALID,0,
2012-05-16, 01:35:04,VALID,1007.98,VALID,0,VALID,104,VALID,0,VALID,23.2654,VALID,228,VALID,0,
2012-05-16, 01:36:04,VALID,1007.96,VALID,0,VALID,104,VALID,0,VALID,23.2246,VALID,228,VALID,0,
2012-05-16, 01:37:04,VALID,1007.94,VALID,0,VALID,104,VALID,0,VALID,23.2051,VALID,228,VALID,0,
2012-05-16, 01:38:04,VALID,1007.95,VALID,0,VALID,104,VALID,0,VALID,23.2459,VALID,228,VALID,0.00273437,
2012-05-16, 01:39:04,VALID,1007.91,VALID,0,VALID,104,VALID,0,VALID,23.2459,VALID,228,VALID,0.126953,
2012-05-16, 01:40:04,VALID,1007.93,VALID,0,VALID,104,VALID,0,VALID,23.2459,VALID,228,VALID,0.0273438,
2012-05-16, 01:41:04,VALID,1007.91,VALID,0,VALID,104,VALID,0.112112,VALID,23.2264,VALID,228,VALID,0,
2012-05-16, 01:42:04,VALID,1007.88,VALID,0,VALID,104,VALID,0,VALID,23.2069,VALID,228,VALID,0,
2012-05-16, 01:43:04,VALID,1007.9,VALID,0,VALID,104,VALID,0,VALID,23.1874,VALID,228,VALID,0,
2012-05-16, 01:44:04,VALID,1007.86,VALID,0,VALID,104,VALID,0,VALID,23.1679,VALID,228,VALID,0,
2012-05-16, 01:45:04,VALID,1007.82,VALID,0,VALID,104,VALID,0,VALID,23.2087,VALID,228,VALID,0,
2012-05-16, 01:46:04,VALID,1007.83,VALID,0,VALID,104,VALID,0,VALID,23.1874,VALID,228,VALID,0,
2012-05-16, 01:47:04,VALID,1007.77,VALID,0,VALID,104,VALID,0,VALID,23.1874,VALID,228,VALID,0,
2012-05-16, 01:48:04,VALID,1007.77,VALID,0,VALID,104,VALID,0,VALID,23.1679,VALID,228,VALID,0,
2012-05-16, 01:49:04,VALID,1007.74,VALID,0,VALID,104,VALID,0,VALID,23.1467,VALID,228,VALID,0,
2012-05-16, 01:50:04,VALID,1007.73,VALID,0,VALID,104,VALID,0,VALID,23.1485,VALID,228,VALID,0,
2012-05-16, 01:51:04,VALID,1007.74,VALID,0,VALID,104,VALID,0,VALID,23.1679,VALID,228,VALID,0.0121094,
2012-05-16, 01:52:04,VALID,1007.7,VALID,0,VALID,104,VALID,0,VALID,23.1485,VALID,228,VALID,0,
2012-05-16, 01:53:04,VALID,1007.69,VALID,0,VALID,104,VALID,0,VALID,23.1272,VALID,228,VALID,0,
2012-05-16, 01:54:04,VALID,1007.66,VALID,0,VALID,104,VALID,0,VALID,23.129,VALID,228,VALID,0,
2012-05-16, 01:55:04,VALID,1007.64,VALID,0,VALID,104,VALID,0,VALID,23.129,VALID,228,VALID,0,
2012-05-16, 01:56:04,VALID,1007.65,VALID,0,VALID,104,VALID,0,VALID,23.1095,VALID,228,VALID,0,
2012-05-16, 01:57:04,VALID,1007.64,VALID,0,VALID,104,VALID,0,VALID,23.1095,VALID,228,VALID,0,
2012-05-16, 01:58:04,VALID,1007.61,VALID,0,VALID,104,VALID,0,VALID,23.0883,VALID,228,VALID,0,
2012-05-16, 01:59:04,VALID,1007.62,VALID,0,VALID,104,VALID,0,VALID,23.1095,VALID,228,VALID,0,
2012-05-16, 02:00:04,VALID,1007.62,VALID,0,VALID,104,VALID,0,VALID,23.1095,VALID,228,VALID,0,
2012-05-16, 02:01:04,VALID,1007.62,VALID,0,VALID,104,VALID,0,VALID,23.1095,VALID,228,VALID,0,
2012-05-16, 02:02:04,VALID,1007.63,VALID,0,VALID,104,VALID,0,VALID,23.09,VALID,228,VALID,0,
2012-05-16, 02:03:04,VALID,1007.6,VALID,0,VALID,104,VALID,0,VALID,23.09,VALID,228,VALID,0,
2012-05-16, 02:04:04,VALID,1007.61,VALID,0,VALID,104,VALID,0.112112,VALID,23.09,VALID,228,VALID,0,
2012-05-16, 02:05:04,VALID,1007.61,VALID,0,VALID,104,VALID,0,VALID,23.09,VALID,228,VALID,0,
2012-05-16, 02:06:04,VALID,1007.62,VALID,0,VALID,104,VALID,0,VALID,23.0883,VALID,228,VALID,0,
2012-05-16, 02:07:04,VALID,1007.59,VALID,0,VALID,104,VALID,0,VALID,23.09,VALID,228,VALID,0.201562,
2012-05-16, 02:08:04,VALID,1007.59,VALID,0,VALID,104,VALID,0.112112,VALID,23.09,VALID,228,VALID,0.330078,
2012-05-16, 02:09:04,VALID,1007.63,VALID,0,VALID,104,VALID,0,VALID,23.1095,VALID,228,VALID,0.191016,
2012-05-16, 02:10:04,VALID,1007.6,VALID,0,VALID,104,VALID,0,VALID,23.09,VALID,228,VALID,0.015625,
2012-05-16, 02:11:04,VALID,1007.6,VALID,0,VALID,104,VALID,0,VALID,23.0688,VALID,228,VALID,0,
2012-05-16, 02:12:04,VALID,1007.6,VALID,0,VALID,104,VALID,0,VALID,23.0705,VALID,228,VALID,0,
2012-05-16, 02:13:04,VALID,1007.58,VALID,0,VALID,104,VALID,0,VALID,23.09,VALID,228,VALID,0,
2012-05-16, 02:14:04,VALID,1007.58,VALID,0,VALID,104,VALID,0,VALID,23.0705,VALID,228,VALID,0,
2012-05-16, 02:15:04,VALID,1007.54,VALID,0,VALID,104,VALID,0,VALID,23.0705,VALID,228,VALID,0,
2012-05-16, 02:16:04,VALID,1007.54,VALID,0,VALID,104,VALID,0,VALID,23.1112,VALID,228,VALID,0,
2012-05-16, 02:17:04,VALID,1007.53,VALID,0,VALID,104,VALID,0,VALID,23.0705,VALID,228,VALID,0,
2012-05-16, 02:18:04,VALID,1007.54,VALID,0,VALID,104,VALID,0,VALID,23.0511,VALID,228,VALID,0,
2012-05-16, 02:19:04,VALID,1007.53,VALID,0,VALID,104,VALID,0,VALID,23.0511,VALID,228,VALID,0,
2012-05-16, 02:20:04,VALID,1007.49,VALID,0,VALID,104,VALID,0,VALID,23.0316,VALID,228,VALID,0,
2012-05-16, 02:21:04,VALID,1007.49,VALID,0,VALID,104,VALID,0,VALID,23.0316,VALID,228,VALID,0,
2012-05-16, 02:22:04,VALID,1007.48,VALID,0,VALID,104,VALID,0,VALID,22.9909,VALID,228,VALID,0,
2012-05-16, 02:23:04,VALID,1007.46,VALID,0,VALID,104,VALID,0,VALID,22.9926,VALID,228,VALID,0,
2012-05-16, 02:24:04,VALID,1007.46,VALID,0,VALID,104,VALID,0.112112,VALID,22.9731,VALID,228,VALID,0,
2012-05-16, 02:25:04,VALID,1007.48,VALID,0,VALID,104,VALID,0,VALID,22.9536,VALID,228,VALID,0,
2012-05-16, 02:26:04,VALID,1007.45,VALID,0,VALID,104,VALID,0,VALID,22.9342,VALID,228,VALID,0,
2012-05-16, 02:27:04,VALID,1007.45,VALID,0,VALID,104,VALID,0,VALID,22.8935,VALID,228,VALID,0,
2012-05-16, 02:28:04,VALID,1007.46,VALID,0,VALID,104,VALID,0.112112,VALID,22.9129,VALID,228,VALID,0,
2012-05-16, 02:29:04,VALID,1007.47,VALID,0,VALID,104,VALID,0,VALID,22.9342,VALID,228,VALID,0,
2012-05-16, 02:30:04,VALID,1007.47,VALID,0,VALID,104,VALID,0,VALID,22.9129,VALID,228,VALID,0,
2012-05-16, 02:31:04,VALID,1007.49,VALID,0,VALID,104,VALID,0.112112,VALID,22.9129,VALID,228,VALID,0,
2012-05-16, 02:32:04,VALID,1007.5,VALID,0,VALID,104,VALID,0,VALID,22.9342,VALID,228,VALID,0,
2012-05-16, 02:33:04,VALID,1007.49,VALID,0,VALID,104,VALID,0,VALID,22.9519,VALID,228,VALID,0,
2012-05-16, 02:34:04,VALID,1007.51,VALID,0,VALID,104,VALID,0,VALID,22.9714,VALID,228,VALID,0.096875,
2012-05-16, 02:35:04,VALID,1007.53,VALID,0,VALID,104,VALID,0,VALID,22.9909,VALID,228,VALID,0,
2012-05-16, 02:36:04,VALID,1007.54,VALID,0,VALID,104,VALID,0,VALID,22.9909,VALID,228,VALID,0.0167969,
2012-05-16, 02:37:04,VALID,1007.52,VALID,0,VALID,104,VALID,0.112112,VALID,23.0316,VALID,228,VALID,0,
2012-05-16, 02:38:04,VALID,1007.55,VALID,0,VALID,104,VALID,0.112112,VALID,23.0121,VALID,228,VALID,0,
2012-05-16, 02:39:04,VALID,1007.53,VALID,0,VALID,104,VALID,0,VALID,22.9324,VALID,228,VALID,0,
2012-05-16, 02:40:04,VALID,1007.5,VALID,0,VALID,104,VALID,0,VALID,22.9324,VALID,228,VALID,0,
2012-05-16, 02:41:04,VALID,1007.48,VALID,0,VALID,104,VALID,0,VALID,22.9129,VALID,228,VALID,0,
2012-05-16, 02:42:04,VALID,1007.44,VALID,0,VALID,104,VALID,0.112112,VALID,22.9342,VALID,228,VALID,0,
2012-05-16, 02:43:04,VALID,1007.43,VALID,0,VALID,104,VALID,0.112112,VALID,22.9324,VALID,228,VALID,0,
2012-05-16, 02:44:04,VALID,1007.44,VALID,0,VALID,104,VALID,0.112112,VALID,22.9342,VALID,228,VALID,0,
2012-05-16, 02:45:04,VALID,1007.42,VALID,0,VALID,104,VALID,0.112112,VALID,22.9324,VALID,228,VALID,0,
2012-05-16, 02:46:04,VALID,1007.42,VALID,0,VALID,104,VALID,0.112112,VALID,22.9342,VALID,228,VALID,0,
2012-05-16, 02:47:04,VALID,1007.42,VALID,0,VALID,104,VALID,0.112112,VALID,22.9129,VALID,228,VALID,0,
2012-05-16, 02:48:04,VALID,1007.44,VALID,0,VALID,104,VALID,0.112112,VALID,22.9129,VALID,228,VALID,0,
2012-05-16, 02:49:04,VALID,1007.45,VALID,0,VALID,104,VALID,0,VALID,22.9519,VALID,228,VALID,0,
2012-05-16, 02:50:04,VALID,1007.46,VALID,0,VALID,104,VALID,0.112112,VALID,22.9519,VALID,228,VALID,0,
2012-05-16, 02:51:04,VALID,1007.45,VALID,0,VALID,104,VALID,0,VALID,22.9731,VALID,228,VALID,0,
2012-05-16, 02:52:04,VALID,1007.44,VALID,0,VALID,104,VALID,0.112112,VALID,22.9519,VALID,228,VALID,0,
2012-05-16, 02:53:04,VALID,1007.45,VALID,0,VALID,104,VALID,0,VALID,22.9342,VALID,228,VALID,0,
2012-05-16, 02:54:04,VALID,1007.42,VALID,0,VALID,104,VALID,0,VALID,22.9342,VALID,228,VALID,0,
2012-05-16, 02:55:04,VALID,1007.42,VALID,0,VALID,104,VALID,0,VALID,22.9342,VALID,228,VALID,0,
2012-05-16, 02:56:04,VALID,1007.42,VALID,0,VALID,104,VALID,0,VALID,22.9147,VALID,228,VALID,0,
2012-05-16, 02:57:04,VALID,1007.41,VALID,0,VALID,104,VALID,0,VALID,22.9342,VALID,228,VALID,0,
2012-05-16, 02:58:04,VALID,1007.42,VALID,0,VALID,104,VALID,0,VALID,22.9147,VALID,228,VALID,0,
2012-05-16, 02:59:04,VALID,1007.42,VALID,0,VALID,104,VALID,0,VALID,22.9342,VALID,228,VALID,0,
2012-05-16, 03:00:04,VALID,1007.42,VALID,0,VALID,104,VALID,0,VALID,22.9554,VALID,228,VALID,0,
2012-05-16, 03:01:04,VALID,1007.41,VALID,0,VALID,104,VALID,0,VALID,22.9554,VALID,228,VALID,0,
2012-05-16, 03:02:04,VALID,1007.42,VALID,0,VALID,104,VALID,0,VALID,22.9536,VALID,228,VALID,0,
2012-05-16, 03:03:04,VALID,1007.38,VALID,0,VALID,104,VALID,0,VALID,22.9943,VALID,228,VALID,0,
2012-05-16, 03:04:04,VALID,1007.39,VALID,0,VALID,104,VALID,0,VALID,22.9536,VALID,228,VALID,0,
2012-05-16, 03:05:04,VALID,1007.4,VALID,0,VALID,104,VALID,0,VALID,22.9749,VALID,228,VALID,0,
2012-05-16, 03:06:04,VALID,1007.38,VALID,0,VALID,104,VALID,0,VALID,22.9536,VALID,228,VALID,0,
2012-05-16, 03:07:04,VALID,1007.38,VALID,0,VALID,104,VALID,0,VALID,22.9342,VALID,228,VALID,0,
2012-05-16, 03:08:04,VALID,1007.42,VALID,0,VALID,104,VALID,0,VALID,22.9164,VALID,228,VALID,0,
2012-05-16, 03:09:04,VALID,1007.41,VALID,0,VALID,104,VALID,0,VALID,22.8757,VALID,228,VALID,0,
2012-05-16, 03:10:04,VALID,1007.4,VALID,0,VALID,104,VALID,0,VALID,22.8952,VALID,228,VALID,0,
2012-05-16, 03:11:04,VALID,1007.42,VALID,0,VALID,104,VALID,0,VALID,22.8952,VALID,228,VALID,0,
2012-05-16, 03:12:04,VALID,1007.4,VALID,0,VALID,104,VALID,0,VALID,22.9359,VALID,228,VALID,0,
2012-05-16, 03:13:04,VALID,1007.4,VALID,0,VALID,104,VALID,0,VALID,22.9147,VALID,228,VALID,0,
2012-05-16, 03:14:04,VALID,1007.37,VALID,0,VALID,104,VALID,0,VALID,22.9147,VALID,228,VALID,0,
2012-05-16, 03:15:04,VALID,1007.35,VALID,0,VALID,104,VALID,0,VALID,22.9554,VALID,228,VALID,0.142969,
2012-05-16, 03:16:04,VALID,1007.37,VALID,0,VALID,104,VALID,0,VALID,22.9536,VALID,228,VALID,0.282031,
2012-05-16, 03:17:04,VALID,1007.36,VALID,0,VALID,104,VALID,0,VALID,22.9536,VALID,228,VALID,0.21875,
2012-05-16, 03:18:04,VALID,1007.37,VALID,0,VALID,104,VALID,0,VALID,22.9536,VALID,228,VALID,0.307813,
2012-05-16, 03:19:04,VALID,1007.37,VALID,0,VALID,104,VALID,0,VALID,22.9359,VALID,228,VALID,0.244141,
2012-05-16, 03:20:04,VALID,1007.36,VALID,0,VALID,104,VALID,0,VALID,22.9147,VALID,228,VALID,0.220313,
2012-05-16, 03:21:04,VALID,1007.34,VALID,0,VALID,104,VALID,0,VALID,22.8757,VALID,228,VALID,0.151953,
2012-05-16, 03:22:04,VALID,1007.33,VALID,0,VALID,104,VALID,0,VALID,22.8969,VALID,228,VALID,0,
2012-05-16, 03:23:04,VALID,1007.36,VALID,0,VALID,104,VALID,0.112112,VALID,22.874,VALID,228,VALID,0,
2012-05-16, 03:24:04,VALID,1007.36,VALID,0,VALID,104,VALID,0.112112,VALID,22.8952,VALID,228,VALID,0,
2012-05-16, 03:25:04,VALID,1007.38,VALID,0,VALID,104,VALID,0.112112,VALID,22.8562,VALID,228,VALID,0,
2012-05-16, 03:26:04,VALID,1007.38,VALID,0,VALID,104,VALID,0,VALID,22.8562,VALID,228,VALID,0,
2012-05-16, 03:27:04,VALID,1007.41,VALID,0,VALID,104,VALID,0,VALID,22.8562,VALID,228,VALID,0,
2012-05-16, 03:28:04,VALID,1007.4,VALID,0,VALID,104,VALID,0,VALID,22.8757,VALID,228,VALID,0,
2012-05-16, 03:29:04,VALID,1007.42,VALID,0,VALID,104,VALID,0.112112,VALID,22.9147,VALID,228,VALID,0.169922,
2012-05-16, 03:30:05,VALID,1007.42,VALID,0,VALID,104,VALID,0.112112,VALID,22.9129,VALID,228,VALID,0.0644531,
2012-05-16, 03:31:04,VALID,1007.42,VALID,0,VALID,104,VALID,0,VALID,22.9342,VALID,228,VALID,0,
2012-05-16, 03:32:04,VALID,1007.42,VALID,0,VALID,104,VALID,0,VALID,22.9342,VALID,228,VALID,0,
2012-05-16, 03:33:04,VALID,1007.44,VALID,0,VALID,104,VALID,0,VALID,22.9147,VALID,228,VALID,0,
2012-05-16, 03:34:04,VALID,1007.42,VALID,0,VALID,104,VALID,0,VALID,22.874,VALID,228,VALID,0,
2012-05-16, 03:35:05,VALID,1007.43,VALID,0,VALID,104,VALID,0,VALID,22.8562,VALID,228,VALID,0,
2012-05-16, 03:36:05,VALID,1007.43,VALID,0,VALID,104,VALID,0,VALID,22.8757,VALID,228,VALID,0.131641,
2012-05-16, 03:37:05,VALID,1007.43,VALID,0,VALID,104,VALID,0.112112,VALID,22.9147,VALID,228,VALID,0.0746094,
2012-05-16, 03:38:05,VALID,1007.45,VALID,0,VALID,104,VALID,0,VALID,22.9342,VALID,228,VALID,0.1375,
2012-05-16, 03:39:05,VALID,1007.44,VALID,0,VALID,104,VALID,0,VALID,22.9342,VALID,228,VALID,0.0773437,
2012-05-16, 03:40:05,VALID,1007.48,VALID,0,VALID,104,VALID,0,VALID,22.9536,VALID,228,VALID,0,
2012-05-16, 03:41:05,VALID,1007.46,VALID,0,VALID,104,VALID,0,VALID,22.9342,VALID,228,VALID,0,
2012-05-16, 03:42:05,VALID,1007.46,VALID,0,VALID,104,VALID,0,VALID,22.9147,VALID,228,VALID,0,
2012-05-16, 03:43:05,VALID,1007.49,VALID,0,VALID,104,VALID,0,VALID,22.9147,VALID,228,VALID,0,
2012-05-16, 03:44:05,VALID,1007.49,VALID,0,VALID,104,VALID,0,VALID,22.8757,VALID,228,VALID,0,
2012-05-16, 03:45:05,VALID,1007.5,VALID,0,VALID,104,VALID,0,VALID,22.8545,VALID,228,VALID,0,
2012-05-16, 03:46:05,VALID,1007.52,VALID,0,VALID,104,VALID,0,VALID,22.8757,VALID,228,VALID,0,
2012-05-16, 03:47:05,VALID,1007.55,VALID,0,VALID,104,VALID,0,VALID,22.8952,VALID,228,VALID,0,
2012-05-16, 03:48:05,VALID,1007.55,VALID,0,VALID,104,VALID,0,VALID,22.9536,VALID,228,VALID,0,
2012-05-16, 03:49:05,VALID,1007.55,VALID,0,VALID,104,VALID,0,VALID,22.9731,VALID,228,VALID,0,
2012-05-16, 03:50:05,VALID,1007.54,VALID,0,VALID,104,VALID,0,VALID,22.9536,VALID,228,VALID,0,
2012-05-16, 03:51:05,VALID,1007.54,VALID,0,VALID,104,VALID,0,VALID,22.9536,VALID,228,VALID,0,
2012-05-16, 03:52:05,VALID,1007.55,VALID,0,VALID,104,VALID,0.112112,VALID,22.9519,VALID,228,VALID,0,
2012-05-16, 03:53:05,VALID,1007.55,VALID,0,VALID,104,VALID,0,VALID,22.9536,VALID,228,VALID,0.105469,
2012-05-16, 03:54:05,VALID,1007.55,VALID,0,VALID,104,VALID,0,VALID,22.9536,VALID,228,VALID,0.181641,
2012-05-16, 03:55:05,VALID,1007.59,VALID,0,VALID,104,VALID,0,VALID,22.9342,VALID,228,VALID,0,
2012-05-16, 03:56:05,VALID,1007.58,VALID,0,VALID,104,VALID,0.112112,VALID,22.9129,VALID,228,VALID,0,
2012-05-16, 03:57:05,VALID,1007.61,VALID,0,VALID,104,VALID,0,VALID,22.8952,VALID,228,VALID,0,
2012-05-16, 03:58:05,VALID,1007.61,VALID,0,VALID,104,VALID,0,VALID,22.8952,VALID,228,VALID,0,
2012-05-16, 03:59:05,VALID,1007.64,VALID,0,VALID,104,VALID,0,VALID,22.8952,VALID,228,VALID,0,
2012-05-16, 04:00:05,VALID,1007.64,VALID,0,VALID,104,VALID,0,VALID,22.9129,VALID,228,VALID,0,
2012-05-16, 04:01:05,VALID,1007.64,VALID,0,VALID,104,VALID,0,VALID,22.9342,VALID,224,VALID,0.11875,
2012-05-16, 04:02:05,VALID,1007.67,VALID,0,VALID,104,VALID,0,VALID,22.9536,VALID,167,VALID,0.560547,